Location: Unspecified
(34.1750°S, 150.8048°E)
Time: 06:07:21
(UTC+10:00)

Envisat - Visible Passes

Search period start: 29 September 2023 00:00
Search period end: 09 October 2023 01:00
Orbit: 763 x 764 km, 98.2° (Epoch: 28 September)

Date Brightness Start Highest point End Pass type
(mag) Time Alt. Az. Time Alt. Az. Time Alt. Az.
29 Sep 5.4 02:28:50 16° S 02:28:50 16° S 02:29:55 10° S visible
30 Sep 5.8 01:50:59 13° SSE 01:50:59 13° SSE 01:51:44 10° SSE visible
30 Sep 5.2 03:31:08 13° SSW 03:31:08 13° SSW 03:31:39 10° SSW visible
01 Oct 5.0 03:53:17 19° S 03:53:17 19° S 03:54:42 10° S visible
02 Oct 5.3 03:15:25 19° SSE 03:15:25 19° SSE 03:17:06 10° S visible
02 Oct 5.3 04:55:35 10° SW 04:55:35 10° SW 04:55:35 10° SW visible
03 Oct 5.9 02:37:33 12° SE 02:37:33 12° SE 02:38:26 10° SSE visible
03 Oct 4.8 04:17:42 19° SSW 04:17:42 19° SSW 04:19:13 10° SSW visible
04 Oct 4.8 03:39:52 25° S 03:39:52 25° S 03:42:02 10° S visible
05 Oct 5.3 03:02:00 20° SE 03:02:00 20° SE 03:04:10 10° SSE visible
05 Oct 4.9 04:42:10 16° SW 04:42:10 16° SW 04:43:21 10° SW visible
06 Oct 6.0 02:24:09 10° SE 02:24:09 10° SE 02:24:29 10° SE visible
06 Oct 4.4 04:04:18 28° SSW 04:04:18 28° SSW 04:06:40 10° SSW visible
07 Oct 4.7 03:26:27 30° SSE 03:26:27 30° SSE 03:29:17 10° S visible
07 Oct 5.1 05:06:36 11° SW 05:06:36 11° SW 05:06:57 10° SW visible
08 Oct 5.5 02:48:36 18° SE 02:48:36 18° SE 02:51:06 10° SSE visible
08 Oct 4.4 04:28:45 24° SW 04:28:45 24° SW 04:31:00 10° SSW visible
